Home > Weather > Concepción > Past weeks

Flag for Chile Weather for the Past 2 Weeks in Concepción, Chile

Now
61 °F

Sunny.


Feels Like: 61 °F
Forecast: 56 / 75 °F
Wind: 3 mph from South

Location: Concepcion Airport

Current Time: Feb 8, 2016 at 10:37:09 AM

Latest Report: Feb 8, 2016 at 10:00 AM


Visibility: 10 mi

Pressure: 30.01 "Hg

Humidity: 77%

Dew point: 54 °F

Location of ConcepciónLocation

Historic Weather in Concepción — Graph

°F

Concepción Temperature Yesterday

Maximum temperature yesterday: 75 °F (at 4:00 PM)
Minimum temperature yesterday: 54 °F (at 6:00 AM)
Average temperature yesterday: 64 °F

High & Low Weather Summary for the Past Weeks

 TemperatureHumidityPressure
High82 °F (Jan 30, 4:00 PM)100% (Jan 28, 3:00 AM)30.04 "Hg (Jan 28, 3:00 AM)
Low50 °F (Feb 6, 6:00 AM)45% (Jan 30, 4:00 PM)29.83 "Hg (Feb 1, 8:00 PM)
Average65 °F73%29.94 "Hg
* Reported Jan 24 9:00 AM — Feb 8 9:00 AM, Concepción, Weather by CustomWeather, © 2016

Note: Actual official high and low records may vary slightly from our data, if they occured in-between our weather recording intervals... More about our weather records

Advertising

Concepción Weather History for the Previous 24 Hours

 ConditionsComfort  
Time TempWeatherWind HumidityBarometerVisibility
9:00 AM
Mon, Feb 8
57 °FSunny.2 mph82%29.98 "Hg10 mi
8:00 AM54 °FSunny.2 mph88%29.98 "Hg10 mi
7:00 AM54 °FClear.3 mph94%29.95 "Hg10 mi
6:00 AM55 °FClear.3 mph88%29.92 "Hg10 mi
5:00 AM55 °FClear.6 mph88%29.92 "Hg10 mi
4:00 AM57 °FClear.6 mph88%29.92 "Hg10 mi
3:00 AM57 °FClear.7 mph88%29.92 "Hg10 mi
2:00 AM59 °FClear.7 mph82%29.92 "Hg10 mi
1:00 AM59 °FClear.6 mph82%29.92 "Hg10 mi
12:00 AM61 °FClear.10 mph83%29.89 "Hg10 mi
11:00 PM
Sun, Feb 7
63 °FClear.15 mph73%29.89 "Hg10 mi
10:00 PM64 °FClear.13 mph73%29.89 "Hg10 mi
9:00 PM66 °FClear.12 mph68%29.89 "Hg10 mi
8:00 PM70 °FSunny.13 mph60%29.89 "Hg10 mi
7:00 PM72 °FSunny.15 mph61%29.89 "Hg10 mi
6:00 PM72 °FPassing clouds.8 mph65%29.92 "HgN/A
5:00 PM75 °FPassing clouds.7 mph54%29.92 "HgN/A
4:00 PM75 °FPassing clouds.8 mph54%29.92 "HgN/A
3:00 PM73 °FPassing clouds.8 mph57%29.92 "HgN/A
2:00 PM70 °FPassing clouds.8 mph64%29.95 "HgN/A
1:00 PM70 °FPassing clouds.6 mph60%29.95 "HgN/A
12:00 PM68 °FPassing clouds.5 mph64%29.95 "HgN/A
11:00 AM66 °FPassing clouds.5 mph68%29.95 "HgN/A
10:00 AM63 °FPassing clouds.3 mph73%29.95 "HgN/A
Weather by CustomWeather, © 2016

See weather overviewHow to use our weather pages